Location: Agadir-Ikarkaouin
(31.1503°N, 9.0246°W)
Time: 04:04:16
(UTC+00:00)

SJ-11-01 - Pass Details

Date: 18 September 2020
Orbit: 684 x 701 km, 98.0° (Epoch: 23 October)

Event Time Altitude Azimuth Distance (km) Brightness Sun altitude
Rises 19:37:22 0° 161° (SSE) 3,067 7.3 -13.6°
Reaches altitude 10° 19:39:37 10° 159° (SSE) 2,151 6.5 -14.1°
Maximum altitude 19:44:18 71° 76° (ENE) 738 4.2 -15.0°
Drops below altitude 10° 19:49:00 10° 353° (N) 2,153 7.1 -16.0°
Sets 19:51:15 0° 351° (N) 3,071 7.9 -16.5°
